VANGUARD 2

Satellite information

Favourite Embed

Satellite Type and Status

PAYLOADIN ORBIT

Key statistics

Satellite VANGUARD 2 at a glance.

Uptime

24318

Days in orbit

Revolutions

≈ 11.9

Per day

Orbit

MEO

Medium Earth Orbit

Inclination

32.9

Latest

Satellite identification and parameters

Extended collection of information and parameters for VANGUARD 2.

Object identification

Identified? True

Debris? False

Object name: VANGUARD 2

International designator: 1959-001A

Object number (NORAD): 11

Object ID (CCSDS): 11

Country: UNITED STATES OF AMERICA (US)

Current information (Y/N): Y

RCS size: MEDIUM

Orbital parameters

Period: 121.006 minutes

Inclination: 32.878 deg

SMA: 8103.975 km

Apoapsis: 2899.805 km

Periapsis: 551.876 km

RAAN: 44.6808 deg

Eccentricy: 0.1448628

Argument of periapsis: 293.768 deg

Mean anomaly: 51.7747 deg

Mean motion: 11.9002373 rev/day

Mean motion (dot): 0.00000564 rev/day2

B* drag term: 0.00027972777 1/REarth

Two-line elements (TLE)

Creation date: Sept. 15, 2025, 7:50 p.m.

Reference frame: TEME

Reference center: EARTH

Epoch: Sept. 15, 2025, 10:15 a.m. UTC

TLE line 0: 0 VANGUARD 2

TLE line 1: 1 00011U 59001A 25258.42744427 .00000564 00000-0 27973-3 0 9999

TLE line 2: 2 00011 32.8780 44.6808 1448628 293.7680 51.7747 11.90023730502723

Live tracking on map

Real-time ground track for satellite VANGUARD 2.

In-orbit conjunctions

There are no conjunctions computed for VANGUARD 2, at the moment. Check back to stay up to date, as we update our databases every day.

Go to all conjunctions

Associated space launch

Vanguard II is an Earth orbiting satellite and the first weather satellite. It was designed to measure cloud-cover distribution over the daylight portion of its orbit for a period of 19 days and to provide information on the density of the atmosphere.

VANGUARD 2 was lifted into orbit during the mission ‘Vanguard | Vanguard II’, on board a Vanguard space rocket.

The launch took place on Feb. 17, 1959, 3:55 p.m. from Launch Complex 18A.

For more information about the launch, click the button.

Launch to space Vanguard | Vanguard II
Vanguard | Vanguard II

Agency: N/A

Status: Launch Successful

Launch date: Feb. 17, 1959, 3:55 p.m. UTC

Rocket: Vanguard

Launch pad: Launch Complex 18A

Location: Cape Canaveral SFS, FL, USA

...

Latest news about this satellite

There are no fresh news available about this satellite. Check back as we update our databases every day.


Newsletter sign-up

Weekly statistics, charts and insights to help you stay on top of the space industry.